Time,TemperatureF,DewpointF,PressureIn,WindDirection,WindDirectionDegrees,WindSpeedMPH,WindSpeedGustMPH,Humidity,HourlyPrecipIn,Conditions,Clouds,dailyrainin,SoftwareType,DateUTC
2013-07-05 00:01:00,73.1,71.6,30.17,South,185,0.0,2.0,95,0.00,,---,0.00,VWS V14.01,2013-07-05 04:01:00,
2013-07-05 00:02:00,73.1,71.6,30.17,South,185,0.0,2.0,95,0.00,,---,0.00,VWS V14.01,2013-07-05 04:02:00,
2013-07-05 00:08:00,73.1,71.6,30.17,SSW,213,3.0,5.0,95,0.00,,---,0.00,VWS V14.01,2013-07-05 04:08:00,
2013-07-05 00:13:00,73.1,71.6,30.17,South,186,0.0,4.0,95,0.00,,---,0.00,VWS V14.01,2013-07-05 04:13:00,
2013-07-05 00:18:00,73.1,71.6,30.16,South,188,2.0,5.0,95,0.00,,---,0.00,VWS V14.01,2013-07-05 04:18:00,
2013-07-05 00:23:00,73.1,71.6,30.16,South,188,0.0,1.0,95,0.00,,---,0.00,VWS V14.01,2013-07-05 04:23:00,
2013-07-05 00:28:00,73.1,71.6,30.16,South,188,2.0,4.0,95,0.00,,---,0.00,VWS V14.01,2013-07-05 04:28:00,
2013-07-05 00:33:00,73.2,71.7,30.16,South,188,0.0,3.0,95,0.00,,---,0.00,VWS V14.01,2013-07-05 04:33:00,
2013-07-05 00:38:00,73.2,71.7,30.16,South,188,0.0,3.0,95,0.00,,---,0.00,VWS V14.01,2013-07-05 04:38:00,
2013-07-05 00:43:00,73.2,71.7,30.16,South,188,1.0,2.0,95,0.00,,---,0.00,VWS V14.01,2013-07-05 04:43:00,
2013-07-05 00:48:00,73.3,71.8,30.16,South,188,0.0,3.0,95,0.00,,---,0.00,VWS V14.01,2013-07-05 04:48:00,
2013-07-05 00:53:00,73.2,71.7,30.16,South,188,1.0,1.0,95,0.00,,---,0.00,VWS V14.01,2013-07-05 04:53:00,
2013-07-05 00:59:00,73.2,71.7,30.16,SE,128,0.0,4.0,95,0.00,,---,0.00,VWS V14.01,2013-07-05 04:59:00,
2013-07-05 01:04:00,73.3,71.8,30.15,SSE,149,0.0,3.0,95,0.00,,---,0.00,VWS V14.01,2013-07-05 05:04:00,
2013-07-05 01:09:00,73.3,71.8,30.15,SE,133,0.0,5.0,95,0.00,,---,0.00,VWS V14.01,2013-07-05 05:09:00,
2013-07-05 01:14:00,73.4,71.6,30.15,South,187,2.0,4.0,94,0.00,,---,0.00,VWS V14.01,2013-07-05 05:14:00,
2013-07-05 01:19:00,73.5,71.7,30.15,SSW,199,0.0,6.0,94,0.00,,---,0.00,VWS V14.01,2013-07-05 05:19:00,
2013-07-05 01:24:00,73.5,71.7,30.15,South,190,1.0,3.0,94,0.00,,---,0.00,VWS V14.01,2013-07-05 05:24:00,
2013-07-05 01:29:00,73.5,71.7,30.15,SSW,198,2.0,6.0,94,0.00,,---,0.00,VWS V14.01,2013-07-05 05:29:00,
2013-07-05 01:34:00,73.5,71.7,30.15,ENE,60,2.0,3.0,94,0.00,,---,0.00,VWS V14.01,2013-07-05 05:34:00,
2013-07-05 01:39:00,73.5,71.7,30.15,SE,145,0.0,6.0,94,0.00,,---,0.00,VWS V14.01,2013-07-05 05:39:00,
2013-07-05 01:45:00,73.5,71.7,30.15,SSE,163,0.0,3.0,94,0.00,,---,0.00,VWS V14.01,2013-07-05 05:45:00,
2013-07-05 01:50:00,73.5,71.7,30.15,SE,128,2.0,3.0,94,0.00,,---,0.00,VWS V14.01,2013-07-05 05:50:00,
2013-07-05 01:55:00,73.5,71.7,30.15,South,175,0.0,4.0,94,0.00,,---,0.00,VWS V14.01,2013-07-05 05:55:00,
2013-07-05 02:00:00,73.5,71.7,30.15,SE,144,0.0,5.0,94,0.00,,---,0.00,VWS V14.01,2013-07-05 06:00:00,
2013-07-05 02:05:00,73.5,71.7,30.15,SSE,167,0.0,3.0,94,0.00,,---,0.00,VWS V14.01,2013-07-05 06:05:00,
2013-07-05 02:10:00,73.4,71.6,30.15,South,171,4.0,5.0,94,0.00,,---,0.00,VWS V14.01,2013-07-05 06:10:00,
2013-07-05 02:15:00,73.4,71.3,30.15,SSW,202,3.0,6.0,93,0.00,,---,0.00,VWS V14.01,2013-07-05 06:15:00,
2013-07-05 02:20:00,73.4,71.6,30.15,SSE,163,2.0,6.0,94,0.00,,---,0.00,VWS V14.01,2013-07-05 06:20:00,
2013-07-05 02:25:00,73.3,71.5,30.15,SSE,157,0.0,4.0,94,0.00,,---,0.00,VWS V14.01,2013-07-05 06:25:00,
2013-07-05 02:30:00,73.3,71.5,30.15,SSW,205,0.0,5.0,94,0.00,,---,0.00,VWS V14.01,2013-07-05 06:30:00,
2013-07-05 02:35:00,73.3,71.5,30.15,East,101,0.0,5.0,94,0.00,,---,0.00,VWS V14.01,2013-07-05 06:35:00,
2013-07-05 02:40:00,73.2,71.4,30.15,ESE,113,0.0,0.0,94,0.00,,---,0.00,VWS V14.01,2013-07-05 06:40:00,
2013-07-05 02:45:00,73.2,71.4,30.15,SSW,193,1.0,7.0,94,0.00,,---,0.00,VWS V14.01,2013-07-05 06:45:00,
2013-07-05 02:51:00,73.2,71.4,30.15,South,182,3.0,4.0,94,0.00,,---,0.00,VWS V14.01,2013-07-05 06:51:00,
2013-07-05 02:56:00,73.1,71.3,30.15,South,178,0.0,4.0,94,0.00,,---,0.00,VWS V14.01,2013-07-05 06:56:00,
2013-07-05 03:01:00,73.1,71.3,30.14,South,177,2.0,4.0,94,0.00,,---,0.00,VWS V14.01,2013-07-05 07:01:00,
2013-07-05 03:06:00,73.1,71.3,30.14,SSW,192,2.0,4.0,94,0.00,,---,0.00,VWS V14.01,2013-07-05 07:06:00,
2013-07-05 03:11:00,73.0,71.2,30.14,SSW,199,1.0,4.0,94,0.00,,---,0.00,VWS V14.01,2013-07-05 07:11:00,
2013-07-05 03:16:00,73.0,71.2,30.14,South,188,1.0,5.0,94,0.00,,---,0.00,VWS V14.01,2013-07-05 07:16:00,
2013-07-05 03:21:00,73.0,71.2,30.14,South,184,3.0,4.0,94,0.00,,---,0.00,VWS V14.01,2013-07-05 07:21:00,
2013-07-05 03:26:00,73.0,71.2,30.14,South,182,0.0,4.0,94,0.00,,---,0.00,VWS V14.01,2013-07-05 07:26:00,
2013-07-05 03:31:00,73.0,71.2,30.14,SSW,202,1.0,4.0,94,0.00,,---,0.00,VWS V14.01,2013-07-05 07:31:00,
2013-07-05 03:37:00,72.9,71.1,30.14,SSW,196,1.0,6.0,94,0.00,,---,0.00,VWS V14.01,2013-07-05 07:37:00,
2013-07-05 03:42:00,72.8,71.0,30.14,South,184,1.0,2.0,94,0.00,,---,0.00,VWS V14.01,2013-07-05 07:42:00,
2013-07-05 03:47:00,72.8,71.0,30.14,SW,219,5.0,5.0,94,0.00,,---,0.00,VWS V14.01,2013-07-05 07:47:00,
2013-07-05 03:52:00,72.8,71.0,30.14,SSE,155,0.0,3.0,94,0.00,,---,0.00,VWS V14.01,2013-07-05 07:52:00,
2013-07-05 03:57:00,72.8,71.0,30.14,South,190,0.0,4.0,94,0.00,,---,0.00,VWS V14.01,2013-07-05 07:57:00,
2013-07-05 04:02:00,72.8,71.0,30.14,South,189,0.0,1.0,94,0.00,,---,0.00,VWS V14.01,2013-07-05 08:02:00,
2013-07-05 04:07:00,72.7,70.9,30.14,South,189,0.0,2.0,94,0.00,,---,0.00,VWS V14.01,2013-07-05 08:07:00,
2013-07-05 04:12:00,72.6,71.1,30.14,South,189,0.0,1.0,95,0.00,,---,0.00,VWS V14.01,2013-07-05 08:12:00,
2013-07-05 04:17:00,72.6,71.1,30.14,SSE,165,0.0,5.0,95,0.00,,---,0.00,VWS V14.01,2013-07-05 08:17:00,
2013-07-05 04:23:00,72.4,70.9,30.14,SSE,165,0.0,0.0,95,0.00,,---,0.00,VWS V14.01,2013-07-05 08:23:00,
2013-07-05 04:28:00,72.2,70.7,30.14,SSE,167,3.0,4.0,95,0.00,,---,0.00,VWS V14.01,2013-07-05 08:28:00,
2013-07-05 04:33:00,72.1,70.6,30.14,SSE,168,0.0,2.0,95,0.00,,---,0.00,VWS V14.01,2013-07-05 08:33:00,
2013-07-05 04:38:00,72.1,70.6,30.14,SSE,167,0.0,2.0,95,0.00,,---,0.00,VWS V14.01,2013-07-05 08:38:00,
2013-07-05 04:43:00,72.1,70.6,30.14,SSE,167,1.0,3.0,95,0.00,,---,0.00,VWS V14.01,2013-07-05 08:43:00,
2013-07-05 04:48:00,72.0,70.8,30.14,SSE,167,1.0,3.0,96,0.00,,---,0.00,VWS V14.01,2013-07-05 08:48:00,
2013-07-05 04:53:00,72.0,70.8,30.14,South,182,0.0,5.0,96,0.00,,---,0.00,VWS V14.01,2013-07-05 08:53:00,
2013-07-05 04:58:00,72.0,70.8,30.14,SSE,155,0.0,5.0,96,0.00,,---,0.00,VWS V14.01,2013-07-05 08:58:00,
2013-07-05 05:04:00,72.0,70.8,30.14,SSE,155,0.0,1.0,96,0.00,,---,0.00,VWS V14.01,2013-07-05 09:04:00,
2013-07-05 05:09:00,71.9,70.7,30.14,SSE,153,0.0,3.0,96,0.00,,---,0.00,VWS V14.01,2013-07-05 09:09:00,
2013-07-05 05:14:00,71.9,70.7,30.14,SE,145,0.0,4.0,96,0.00,,---,0.00,VWS V14.01,2013-07-05 09:14:00,
2013-07-05 05:19:00,71.9,70.7,30.14,SE,142,0.0,4.0,96,0.00,,---,0.00,VWS V14.01,2013-07-05 09:19:00,
2013-07-05 05:24:00,71.8,70.6,30.14,SE,142,0.0,4.0,96,0.00,,---,0.00,VWS V14.01,2013-07-05 09:24:00,
2013-07-05 05:29:00,71.7,70.5,30.14,SE,142,0.0,4.0,96,0.00,,---,0.00,VWS V14.01,2013-07-05 09:29:00,
2013-07-05 05:34:00,71.7,70.5,30.14,ESE,113,0.0,4.0,96,0.00,,---,0.00,VWS V14.01,2013-07-05 09:34:00,
2013-07-05 05:39:00,71.8,70.6,30.14,ESE,113,2.0,4.0,96,0.00,,---,0.00,VWS V14.01,2013-07-05 09:39:00,
2013-07-05 05:44:00,71.8,70.6,30.15,ESE,113,0.0,1.0,96,0.00,,---,0.00,VWS V14.01,2013-07-05 09:44:00,
2013-07-05 05:49:00,71.8,70.6,30.15,ESE,113,0.0,1.0,96,0.00,,---,0.00,VWS V14.01,2013-07-05 09:49:00,
2013-07-05 05:55:00,71.8,70.6,30.15,ESE,113,0.0,2.0,96,0.00,,---,0.00,VWS V14.01,2013-07-05 09:55:00,
2013-07-05 06:00:00,71.8,70.6,30.15,ESE,113,0.0,2.0,96,0.00,,---,0.00,VWS V14.01,2013-07-05 10:00:00,
2013-07-05 06:05:00,71.8,70.6,30.15,SSE,163,2.0,4.0,96,0.00,,---,0.00,VWS V14.01,2013-07-05 10:05:00,
2013-07-05 06:10:00,71.8,70.6,30.15,SSE,159,0.0,4.0,96,0.00,,---,0.00,VWS V14.01,2013-07-05 10:10:00,
2013-07-05 06:15:00,71.7,70.5,30.15,SE,140,3.0,3.0,96,0.00,,---,0.00,VWS V14.01,2013-07-05 10:15:00,
2013-07-05 06:20:00,71.7,70.5,30.15,SE,146,0.0,4.0,96,0.00,,---,0.00,VWS V14.01,2013-07-05 10:20:00,
2013-07-05 06:25:00,71.7,70.5,30.15,SE,134,1.0,4.0,96,0.00,,---,0.00,VWS V14.01,2013-07-05 10:25:00,
2013-07-05 06:30:00,71.7,70.5,30.16,SSE,153,1.0,5.0,96,0.00,,---,0.00,VWS V14.01,2013-07-05 10:30:00,
2013-07-05 06:35:00,71.7,70.5,30.16,SE,132,0.0,6.0,96,0.00,,---,0.00,VWS V14.01,2013-07-05 10:35:00,
2013-07-05 06:40:00,71.7,70.5,30.16,SE,132,1.0,6.0,96,0.00,,---,0.00,VWS V14.01,2013-07-05 10:40:00,
2013-07-05 06:45:00,71.7,70.5,30.16,SE,146,2.0,6.0,96,0.00,,---,0.00,VWS V14.01,2013-07-05 10:45:00,
2013-07-05 06:51:00,71.7,70.5,30.16,SSE,151,0.0,1.0,96,0.00,,---,0.00,VWS V14.01,2013-07-05 10:51:00,
2013-07-05 06:56:00,71.7,70.5,30.16,SSE,148,0.0,4.0,96,0.00,,---,0.00,VWS V14.01,2013-07-05 10:56:00,
2013-07-05 07:01:00,71.7,70.5,30.16,SSE,154,0.0,1.0,96,0.00,,---,0.00,VWS V14.01,2013-07-05 11:01:00,
2013-07-05 07:06:00,71.7,70.5,30.16,SE,135,5.0,6.0,96,0.00,,---,0.00,VWS V14.01,2013-07-05 11:06:00,
2013-07-05 07:11:00,71.8,70.6,30.16,SSE,151,0.0,0.0,96,0.00,,---,0.00,VWS V14.01,2013-07-05 11:11:00,
2013-07-05 07:16:00,71.8,70.6,30.16,SSE,161,3.0,5.0,96,0.00,,---,0.00,VWS V14.01,2013-07-05 11:16:00,
2013-07-05 07:21:00,71.8,70.6,30.16,SSE,159,0.0,0.0,96,0.00,,---,0.00,VWS V14.01,2013-07-05 11:21:00,
2013-07-05 07:27:00,72.0,70.8,30.16,South,190,0.0,6.0,96,0.00,,---,0.00,VWS V14.01,2013-07-05 11:27:00,
2013-07-05 07:32:00,72.1,70.9,30.17,South,186,1.0,2.0,96,0.00,,---,0.00,VWS V14.01,2013-07-05 11:32:00,
2013-07-05 07:37:00,72.3,71.1,30.17,South,191,0.0,3.0,96,0.00,,---,0.00,VWS V14.01,2013-07-05 11:37:00,
2013-07-05 07:42:00,72.6,71.1,30.17,ESE,106,2.0,5.0,95,0.00,,---,0.00,VWS V14.01,2013-07-05 11:42:00,
2013-07-05 07:47:00,72.6,71.1,30.17,South,178,5.0,6.0,95,0.00,,---,0.00,VWS V14.01,2013-07-05 11:47:00,
2013-07-05 07:52:00,72.7,71.2,30.17,SSE,153,1.0,3.0,95,0.00,,---,0.00,VWS V14.01,2013-07-05 11:52:00,
2013-07-05 07:57:00,72.8,71.0,30.17,South,186,0.0,5.0,94,0.00,,---,0.00,VWS V14.01,2013-07-05 11:57:00,
2013-07-05 08:02:00,73.0,71.2,30.18,SSE,162,3.0,5.0,94,0.00,,---,0.00,VWS V14.01,2013-07-05 12:02:00,
2013-07-05 08:08:00,73.2,71.4,30.18,South,171,0.0,5.0,94,0.00,,---,0.00,VWS V14.01,2013-07-05 12:08:00,
2013-07-05 08:13:00,73.3,71.5,30.18,SW,219,3.0,5.0,94,0.00,,---,0.00,VWS V14.01,2013-07-05 12:13:00,
2013-07-05 08:18:00,73.4,71.6,30.18,SSW,202,4.0,5.0,94,0.00,,---,0.00,VWS V14.01,2013-07-05 12:18:00,
2013-07-05 08:23:00,73.6,71.8,30.18,South,169,2.0,3.0,94,0.00,,---,0.00,VWS V14.01,2013-07-05 12:23:00,
2013-07-05 08:28:00,73.7,71.6,30.18,SSE,159,3.0,5.0,93,0.00,,---,0.00,VWS V14.01,2013-07-05 12:28:00,
2013-07-05 08:33:00,73.9,71.8,30.17,SSW,192,3.0,4.0,93,0.00,,---,0.00,VWS V14.01,2013-07-05 12:33:00,
2013-07-05 08:38:00,73.9,71.8,30.17,SSW,202,4.0,7.0,93,0.00,,---,0.00,VWS V14.01,2013-07-05 12:38:00,
2013-07-05 08:43:00,73.9,71.4,30.17,SSE,166,1.0,4.0,92,0.00,,---,0.00,VWS V14.01,2013-07-05 12:43:00,
2013-07-05 08:48:00,73.9,71.4,30.18,South,175,2.0,6.0,92,0.00,,---,0.00,VWS V14.01,2013-07-05 12:48:00,
2013-07-05 08:54:00,74.1,71.6,30.18,South,186,0.0,5.0,92,0.00,,---,0.00,VWS V14.01,2013-07-05 12:54:00,
2013-07-05 08:59:00,74.2,71.7,30.18,SW,225,3.0,6.0,92,0.00,,---,0.00,VWS V14.01,2013-07-05 12:59:00,
2013-07-05 09:04:00,74.3,71.8,30.18,SSE,152,1.0,5.0,92,0.00,,---,0.00,VWS V14.01,2013-07-05 13:04:00,
2013-07-05 09:10:00,74.6,71.8,30.18,South,185,6.0,6.0,91,0.00,,---,0.00,VWS V14.01,2013-07-05 13:10:00,
2013-07-05 09:15:00,75.0,72.2,30.18,SSW,210,7.0,8.0,91,0.00,,---,0.00,VWS V14.01,2013-07-05 13:15:00,
2013-07-05 09:20:00,75.0,71.9,30.18,SSE,157,0.0,9.0,90,0.00,,---,0.00,VWS V14.01,2013-07-05 13:20:00,
2013-07-05 09:25:00,75.5,72.4,30.18,ESE,120,2.0,5.0,90,0.00,,---,0.00,VWS V14.01,2013-07-05 13:25:00,
2013-07-05 09:30:00,75.8,72.3,30.18,SSE,151,4.0,11.0,89,0.00,,---,0.00,VWS V14.01,2013-07-05 13:30:00,
2013-07-05 09:35:00,76.1,72.3,30.18,East,94,4.0,5.0,88,0.00,,---,0.00,VWS V14.01,2013-07-05 13:35:00,
2013-07-05 09:40:00,76.5,72.7,30.18,ESE,103,2.0,2.0,88,0.00,,---,0.00,VWS V14.01,2013-07-05 13:40:00,
2013-07-05 09:46:00,76.7,72.5,30.18,ESE,121,4.0,11.0,87,0.00,,---,0.00,VWS V14.01,2013-07-05 13:46:00,
2013-07-05 09:51:00,77.0,72.8,30.18,SW,223,0.0,0.0,87,0.00,,---,0.00,VWS V14.01,2013-07-05 13:51:00,
2013-07-05 09:56:00,77.2,72.7,30.18,SSE,153,1.0,7.0,86,0.00,,---,0.00,VWS V14.01,2013-07-05 13:56:00,
2013-07-05 10:01:00,77.4,72.9,30.18,South,188,0.0,2.0,86,0.00,,---,0.00,VWS V14.01,2013-07-05 14:01:00,
2013-07-05 10:06:00,77.6,73.1,30.18,SSW,207,7.0,7.0,86,0.00,,---,0.00,VWS V14.01,2013-07-05 14:06:00,
2013-07-05 10:11:00,78.0,73.1,30.18,South,188,5.0,6.0,85,0.00,,---,0.00,VWS V14.01,2013-07-05 14:11:00,
2013-07-05 10:16:00,78.0,73.1,30.18,NE,42,1.0,6.0,85,0.00,,---,0.00,VWS V14.01,2013-07-05 14:16:00,
2013-07-05 10:21:00,78.2,72.6,30.18,SSW,209,3.0,6.0,83,0.00,,---,0.00,VWS V14.01,2013-07-05 14:21:00,
2013-07-05 10:27:00,78.6,73.4,30.18,SSW,202,2.0,6.0,84,0.00,,---,0.00,VWS V14.01,2013-07-05 14:27:00,
2013-07-05 10:32:00,79.5,72.4,30.18,SSE,153,3.0,7.0,79,0.00,,---,0.00,VWS V14.01,2013-07-05 14:32:00,
2013-07-05 10:37:00,78.9,72.6,30.18,South,183,2.0,7.0,81,0.00,,---,0.00,VWS V14.01,2013-07-05 14:37:00,
2013-07-05 10:42:00,78.2,72.6,30.18,South,174,0.0,4.0,83,0.00,,---,0.00,VWS V14.01,2013-07-05 14:42:00,
2013-07-05 10:48:00,78.6,73.0,30.18,ESE,113,0.0,4.0,83,0.00,,---,0.00,VWS V14.01,2013-07-05 14:48:00,
2013-07-05 10:53:00,79.7,73.0,30.18,ESE,102,2.0,6.0,80,0.00,,---,0.00,VWS V14.01,2013-07-05 14:53:00,
2013-07-05 10:58:00,80.0,73.7,30.18,SSW,197,3.0,7.0,81,0.00,,---,0.00,VWS V14.01,2013-07-05 14:58:00,
2013-07-05 11:03:00,79.4,73.4,30.18,East,99,5.0,13.0,82,0.00,,---,0.00,VWS V14.01,2013-07-05 15:03:00,
2013-07-05 11:08:00,78.4,72.8,30.18,SE,146,3.0,13.0,83,0.00,,---,0.00,VWS V14.01,2013-07-05 15:08:00,
2013-07-05 11:13:00,78.2,73.0,30.18,East,92,1.0,6.0,84,0.00,,---,0.00,VWS V14.01,2013-07-05 15:13:00,
2013-07-05 11:18:00,79.0,73.4,30.18,South,188,2.0,6.0,83,0.00,,---,0.00,VWS V14.01,2013-07-05 15:18:00,
2013-07-05 11:23:00,79.3,73.7,30.18,SSW,199,1.0,5.0,83,0.00,,---,0.00,VWS V14.01,2013-07-05 15:23:00,
2013-07-05 11:29:00,78.9,72.9,30.18,SSW,201,2.0,10.0,82,0.00,,---,0.00,VWS V14.01,2013-07-05 15:29:00,
2013-07-05 11:34:00,79.0,73.0,30.18,SSW,194,4.0,10.0,82,0.00,,---,0.00,VWS V14.01,2013-07-05 15:34:00,
2013-07-05 11:39:00,79.1,73.1,30.18,SSW,210,3.0,10.0,82,0.00,,---,0.00,VWS V14.01,2013-07-05 15:39:00,
2013-07-05 11:44:00,80.1,73.4,30.18,SW,220,6.0,7.0,80,0.00,,---,0.00,VWS V14.01,2013-07-05 15:44:00,
2013-07-05 11:49:00,80.9,73.0,30.17,SSW,197,7.0,8.0,77,0.00,,---,0.00,VWS V14.01,2013-07-05 15:49:00,
2013-07-05 11:50:00,81.0,73.5,30.17,SSW,197,6.0,8.0,78,0.00,,---,0.00,VWS V14.01,2013-07-05 15:50:00,
2013-07-05 11:55:00,81.5,73.6,30.17,South,181,4.0,13.0,77,0.00,,---,0.00,VWS V14.01,2013-07-05 15:55:00,
2013-07-05 12:00:00,82.3,74.0,30.17,SSE,163,5.0,13.0,76,0.00,,---,0.00,VWS V14.01,2013-07-05 16:00:00,
2013-07-05 12:05:00,82.4,74.1,30.17,South,191,3.0,10.0,76,0.00,,---,0.00,VWS V14.01,2013-07-05 16:05:00,
2013-07-05 12:10:00,82.2,73.9,30.17,SSW,197,5.0,10.0,76,0.00,,---,0.00,VWS V14.01,2013-07-05 16:10:00,
2013-07-05 12:15:00,81.4,73.5,30.18,South,174,4.0,7.0,77,0.00,,---,0.00,VWS V14.01,2013-07-05 16:15:00,
2013-07-05 12:20:00,80.5,73.4,30.18,SSW,200,4.0,7.0,79,0.00,,---,0.00,VWS V14.01,2013-07-05 16:20:00,
2013-07-05 12:22:00,80.1,73.0,30.18,WSW,242,4.0,9.0,79,0.00,,---,0.00,VWS V14.01,2013-07-05 16:22:00,
2013-07-05 12:27:00,79.2,73.9,30.18,South,175,2.0,9.0,84,0.00,,---,0.00,VWS V14.01,2013-07-05 16:27:00,
2013-07-05 12:32:00,80.4,75.1,30.17,SE,133,6.0,6.0,84,0.00,,---,0.00,VWS V14.01,2013-07-05 16:32:00,
2013-07-05 12:37:00,80.5,74.5,30.17,SSE,161,2.0,7.0,82,0.00,,---,0.00,VWS V14.01,2013-07-05 16:37:00,
2013-07-05 12:42:00,82.1,75.3,30.17,SSW,198,1.0,4.0,80,0.00,,---,0.00,VWS V14.01,2013-07-05 16:42:00,
2013-07-05 12:47:00,82.2,74.7,30.17,SSE,161,1.0,6.0,78,0.00,,---,0.00,VWS V14.01,2013-07-05 16:47:00,
2013-07-05 12:53:00,81.9,73.6,30.17,SSW,201,4.0,5.0,76,0.00,,---,0.00,VWS V14.01,2013-07-05 16:53:00,
2013-07-05 12:58:00,82.3,74.4,30.17,SW,215,3.0,6.0,77,0.00,,---,0.00,VWS V14.01,2013-07-05 16:58:00,
2013-07-05 13:03:00,82.5,75.3,30.16,SW,215,2.0,9.0,79,0.00,,---,0.00,VWS V14.01,2013-07-05 17:03:00,
2013-07-05 13:08:00,81.2,73.7,30.16,South,189,1.0,10.0,78,0.00,,---,0.00,VWS V14.01,2013-07-05 17:08:00,
2013-07-05 13:13:00,80.7,74.0,30.16,SSE,162,1.0,6.0,80,0.00,,---,0.00,VWS V14.01,2013-07-05 17:13:00,
2013-07-05 13:18:00,81.7,74.6,30.16,SSE,168,1.0,6.0,79,0.00,,---,0.00,VWS V14.01,2013-07-05 17:18:00,
2013-07-05 13:23:00,83.2,74.8,30.16,SSW,209,5.0,8.0,76,0.00,,---,0.00,VWS V14.01,2013-07-05 17:23:00,
2013-07-05 13:28:00,82.5,73.8,30.16,SSW,200,2.0,8.0,75,0.00,,---,0.00,VWS V14.01,2013-07-05 17:28:00,
2013-07-05 13:29:00,82.4,73.7,30.16,SSW,200,1.0,8.0,75,0.00,,---,0.00,VWS V14.01,2013-07-05 17:29:00,
2013-07-05 13:34:00,81.2,72.9,30.15,South,182,1.0,5.0,76,0.00,,---,0.00,VWS V14.01,2013-07-05 17:34:00,
2013-07-05 13:39:00,79.8,73.4,30.15,SSW,205,3.0,5.0,81,0.01,,---,0.01,VWS V14.01,2013-07-05 17:39:00,
2013-07-05 13:44:00,79.7,74.4,30.15,South,173,0.0,6.0,84,0.02,,---,0.02,VWS V14.01,2013-07-05 17:44:00,
2013-07-05 13:49:00,80.6,77.1,30.15,South,173,1.0,6.0,89,0.02,,---,0.02,VWS V14.01,2013-07-05 17:49:00,
2013-07-05 13:54:00,81.5,75.8,30.15,South,178,2.0,3.0,83,0.02,,---,0.02,VWS V14.01,2013-07-05 17:54:00,
2013-07-05 13:59:00,81.2,74.4,30.15,SW,215,0.0,5.0,80,0.02,,---,0.02,VWS V14.01,2013-07-05 17:59:00,
2013-07-05 14:04:00,80.3,73.9,30.15,SW,215,1.0,1.0,81,0.02,,---,0.02,VWS V14.01,2013-07-05 18:04:00,
2013-07-05 14:09:00,80.0,74.7,30.15,SW,220,2.0,4.0,84,0.02,,---,0.02,VWS V14.01,2013-07-05 18:09:00,
2013-07-05 14:15:00,78.6,74.1,30.16,ESE,118,3.0,9.0,86,0.08,,---,0.08,VWS V14.01,2013-07-05 18:15:00,
2013-07-05 14:20:00,76.4,72.6,30.16,WSW,241,6.0,12.0,88,0.26,,---,0.26,VWS V14.01,2013-07-05 18:20:00,
2013-07-05 14:25:00,75.1,72.6,30.16,WSW,237,4.0,9.0,92,0.37,,---,0.37,VWS V14.01,2013-07-05 18:25:00,
2013-07-05 14:30:00,75.9,74.4,30.14,SW,236,1.0,9.0,95,0.39,,---,0.39,VWS V14.01,2013-07-05 18:30:00,
2013-07-05 14:35:00,77.3,75.1,30.14,SW,236,4.0,5.0,93,0.39,,---,0.39,VWS V14.01,2013-07-05 18:35:00,
2013-07-05 14:40:00,77.4,75.5,30.14,SW,219,0.0,5.0,94,0.39,,---,0.39,VWS V14.01,2013-07-05 18:40:00,
2013-07-05 14:45:00,77.7,74.9,30.14,SW,219,5.0,5.0,91,0.38,,---,0.39,VWS V14.01,2013-07-05 18:45:00,
2013-07-05 14:50:00,78.7,76.8,30.14,SSW,202,3.0,5.0,94,0.38,,---,0.39,VWS V14.01,2013-07-05 18:50:00,
2013-07-05 14:55:00,78.5,75.0,30.14,SSW,198,0.0,5.0,89,0.37,,---,0.39,VWS V14.01,2013-07-05 18:55:00,
2013-07-05 14:57:00,78.4,74.9,30.14,SSW,198,0.0,5.0,89,0.37,,---,0.39,VWS V14.01,2013-07-05 18:57:00,
2013-07-05 15:02:00,78.4,75.2,30.15,SSW,194,1.0,1.0,90,0.37,,---,0.39,VWS V14.01,2013-07-05 19:02:00,
2013-07-05 15:07:00,78.5,76.0,30.15,SSW,194,0.0,3.0,92,0.37,,---,0.39,VWS V14.01,2013-07-05 19:07:00,
2013-07-05 15:12:00,79.1,76.6,30.15,SE,143,0.0,3.0,92,0.37,,---,0.39,VWS V14.01,2013-07-05 19:12:00,
2013-07-05 15:14:00,79.4,76.2,30.15,SSE,151,3.0,4.0,90,0.37,,---,0.39,VWS V14.01,2013-07-05 19:14:00,
2013-07-05 15:19:00,80.7,76.8,30.14,SE,129,1.0,6.0,88,0.37,,---,0.39,VWS V14.01,2013-07-05 19:19:00,
2013-07-05 15:20:00,80.9,76.3,30.14,SSW,200,5.0,6.0,86,0.37,,---,0.39,VWS V14.01,2013-07-05 19:20:00,
2013-07-05 15:25:00,81.5,77.9,30.14,West,260,0.0,7.0,89,0.12,,---,0.39,VWS V14.01,2013-07-05 19:25:00,
2013-07-05 15:30:00,81.6,76.7,30.14,South,173,1.0,7.0,85,0.12,,---,0.39,VWS V14.01,2013-07-05 19:30:00,
2013-07-05 15:35:00,82.2,76.9,30.14,SSW,211,3.0,8.0,84,0.00,,---,0.39,VWS V14.01,2013-07-05 19:35:00,
2013-07-05 15:36:00,82.2,77.2,30.14,SSE,159,4.0,8.0,85,0.00,,---,0.39,VWS V14.01,2013-07-05 19:36:00,
2013-07-05 15:41:00,82.6,76.2,30.14,SE,146,0.0,0.0,81,0.00,,---,0.39,VWS V14.01,2013-07-05 19:41:00,
2013-07-05 15:46:00,82.6,75.4,30.13,SE,130,0.0,6.0,79,0.00,,---,0.39,VWS V14.01,2013-07-05 19:46:00,
2013-07-05 15:52:00,82.9,75.3,30.13,SSE,148,3.0,5.0,78,0.00,,---,0.39,VWS V14.01,2013-07-05 19:52:00,
2013-07-05 15:57:00,82.1,74.9,30.13,ESE,123,5.0,6.0,79,0.00,,---,0.39,VWS V14.01,2013-07-05 19:57:00,
2013-07-05 16:02:00,81.8,75.4,30.12,SSW,209,3.0,7.0,81,0.00,,---,0.39,VWS V14.01,2013-07-05 20:02:00,
2013-07-05 16:07:00,82.3,74.8,30.12,South,170,4.0,9.0,78,0.00,,---,0.39,VWS V14.01,2013-07-05 20:07:00,
2013-07-05 16:12:00,81.6,74.5,30.12,South,180,1.0,4.0,79,0.00,,---,0.39,VWS V14.01,2013-07-05 20:12:00,
2013-07-05 16:17:00,80.6,72.7,30.12,SSE,167,2.0,6.0,77,0.00,,---,0.39,VWS V14.01,2013-07-05 20:17:00,
2013-07-05 16:22:00,80.0,72.9,30.12,South,179,3.0,6.0,79,0.00,,---,0.39,VWS V14.01,2013-07-05 20:22:00,
2013-07-05 16:27:00,79.6,72.9,30.12,South,180,1.0,6.0,80,0.00,,---,0.39,VWS V14.01,2013-07-05 20:27:00,
2013-07-05 16:32:00,79.5,72.0,30.12,South,189,0.0,4.0,78,0.00,,---,0.39,VWS V14.01,2013-07-05 20:32:00,
2013-07-05 16:37:00,79.5,73.2,30.12,SSW,194,2.0,5.0,81,0.00,,---,0.39,VWS V14.01,2013-07-05 20:37:00,
2013-07-05 16:42:00,79.2,73.2,30.12,SSW,196,2.0,4.0,82,0.00,,---,0.39,VWS V14.01,2013-07-05 20:42:00,
2013-07-05 16:47:00,79.1,73.5,30.12,SSW,196,0.0,4.0,83,0.00,,---,0.39,VWS V14.01,2013-07-05 20:47:00,
2013-07-05 16:52:00,78.9,74.0,30.12,SSW,198,0.0,1.0,85,0.00,,---,0.39,VWS V14.01,2013-07-05 20:52:00,
2013-07-05 16:53:00,78.9,74.0,30.12,SSW,198,0.0,1.0,85,0.00,,---,0.39,VWS V14.01,2013-07-05 20:53:00,
2013-07-05 16:59:00,78.8,73.9,30.12,SSW,198,0.0,1.0,85,0.00,,---,0.39,VWS V14.01,2013-07-05 20:59:00,
2013-07-05 17:04:00,78.7,73.8,30.12,SSW,198,0.0,2.0,85,0.00,,---,0.39,VWS V14.01,2013-07-05 21:04:00,
2013-07-05 17:09:00,78.7,73.8,30.12,SSW,198,0.0,4.0,85,0.00,,---,0.39,VWS V14.01,2013-07-05 21:09:00,
2013-07-05 17:14:00,78.5,74.0,30.12,WSW,252,0.0,0.0,86,0.00,,---,0.39,VWS V14.01,2013-07-05 21:14:00,
2013-07-05 17:19:00,78.4,73.9,30.12,WSW,251,1.0,3.0,86,0.00,,---,0.39,VWS V14.01,2013-07-05 21:19:00,
2013-07-05 17:24:00,78.5,73.6,30.12,SW,219,0.0,3.0,85,0.00,,---,0.39,VWS V14.01,2013-07-05 21:24:00,
2013-07-05 17:29:00,78.8,74.3,30.12,SW,219,0.0,3.0,86,0.00,,---,0.39,VWS V14.01,2013-07-05 21:29:00,
2013-07-05 17:34:00,79.2,74.3,30.12,SW,219,3.0,3.0,85,0.00,,---,0.39,VWS V14.01,2013-07-05 21:34:00,
2013-07-05 17:40:00,79.3,73.7,30.12,SSW,211,0.0,5.0,83,0.00,,---,0.39,VWS V14.01,2013-07-05 21:40:00,
2013-07-05 17:45:00,79.5,73.5,30.12,SW,215,5.0,6.0,82,0.00,,---,0.39,VWS V14.01,2013-07-05 21:45:00,
2013-07-05 17:50:00,79.5,73.5,30.12,South,188,3.0,6.0,82,0.00,,---,0.39,VWS V14.01,2013-07-05 21:50:00,
2013-07-05 17:55:00,79.5,73.2,30.12,South,188,0.0,3.0,81,0.00,,---,0.39,VWS V14.01,2013-07-05 21:55:00,
2013-07-05 18:00:00,79.6,74.3,30.10,SSW,205,1.0,3.0,84,0.00,,---,0.39,VWS V14.01,2013-07-05 22:00:00,
2013-07-05 18:05:00,79.2,74.7,30.10,WSW,251,0.0,4.0,86,0.00,,---,0.39,VWS V14.01,2013-07-05 22:05:00,
2013-07-05 18:10:00,78.9,74.0,30.10,SW,219,0.0,4.0,85,0.00,,---,0.39,VWS V14.01,2013-07-05 22:10:00,
2013-07-05 18:15:00,78.6,74.1,30.11,SW,228,1.0,3.0,86,0.00,,---,0.39,VWS V14.01,2013-07-05 22:15:00,
2013-07-05 18:20:00,78.3,74.1,30.11,SW,228,0.0,3.0,87,0.00,,---,0.39,VWS V14.01,2013-07-05 22:20:00,
2013-07-05 18:25:00,78.0,73.8,30.11,SW,228,0.0,1.0,87,0.00,,---,0.39,VWS V14.01,2013-07-05 22:25:00,
2013-07-05 18:30:00,77.9,73.7,30.11,SW,228,0.0,0.0,87,0.00,,---,0.39,VWS V14.01,2013-07-05 22:30:00,
2013-07-05 18:36:00,77.8,74.3,30.11,SW,228,0.0,1.0,89,0.00,,---,0.39,VWS V14.01,2013-07-05 22:36:00,
2013-07-05 18:41:00,77.8,74.6,30.11,SW,228,0.0,1.0,90,0.00,,---,0.39,VWS V14.01,2013-07-05 22:41:00,
2013-07-05 18:46:00,77.7,74.2,30.11,SW,228,0.0,3.0,89,0.00,,---,0.39,VWS V14.01,2013-07-05 22:46:00,
2013-07-05 18:51:00,77.7,74.5,30.11,SW,228,0.0,0.0,90,0.00,,---,0.39,VWS V14.01,2013-07-05 22:51:00,
2013-07-05 18:56:00,77.7,74.2,30.11,SW,228,0.0,2.0,89,0.00,,---,0.39,VWS V14.01,2013-07-05 22:56:00,
2013-07-05 19:01:00,77.6,74.4,30.11,SW,228,0.0,2.0,90,0.00,,---,0.39,VWS V14.01,2013-07-05 23:01:00,
2013-07-05 19:06:00,77.6,74.1,30.11,SW,228,0.0,2.0,89,0.00,,---,0.39,VWS V14.01,2013-07-05 23:06:00,
2013-07-05 19:11:00,77.5,74.3,30.11,SW,228,1.0,1.0,90,0.00,,---,0.39,VWS V14.01,2013-07-05 23:11:00,
2013-07-05 19:16:00,77.3,74.1,30.12,SW,228,0.0,3.0,90,0.00,,---,0.39,VWS V14.01,2013-07-05 23:16:00,
2013-07-05 19:21:00,77.0,73.8,30.12,SW,228,0.0,1.0,90,0.00,,---,0.39,VWS V14.01,2013-07-05 23:21:00,
2013-07-05 19:27:00,77.0,74.2,30.12,SW,228,0.0,1.0,91,0.00,,---,0.39,VWS V14.01,2013-07-05 23:27:00,
2013-07-05 19:32:00,76.9,74.1,30.12,SW,228,0.0,0.0,91,0.00,,---,0.39,VWS V14.01,2013-07-05 23:32:00,
2013-07-05 19:37:00,76.7,73.9,30.12,SW,228,0.0,0.0,91,0.00,,---,0.39,VWS V14.01,2013-07-05 23:37:00,
2013-07-05 19:42:00,76.5,73.7,30.12,SW,228,0.0,1.0,91,0.01,,---,0.40,VWS V14.01,2013-07-05 23:42:00,
2013-07-05 19:47:00,76.2,73.4,30.12,SW,228,0.0,1.0,91,0.01,,---,0.40,VWS V14.01,2013-07-05 23:47:00,
2013-07-05 19:52:00,76.0,73.8,30.12,SW,228,0.0,0.0,93,0.01,,---,0.40,VWS V14.01,2013-07-05 23:52:00,
2013-07-05 19:57:00,75.8,73.6,30.12,SW,228,0.0,0.0,93,0.01,,---,0.40,VWS V14.01,2013-07-05 23:57:00,
2013-07-05 20:02:00,75.5,73.3,30.14,SSW,194,3.0,10.0,93,0.02,,---,0.41,VWS V14.01,2013-07-06 00:02:00,
2013-07-05 20:07:00,75.0,72.8,30.14,SW,225,1.0,10.0,93,0.02,,---,0.41,VWS V14.01,2013-07-06 00:07:00,
2013-07-05 20:13:00,74.6,72.8,30.14,SW,221,0.0,3.0,94,0.02,,---,0.41,VWS V14.01,2013-07-06 00:13:00,
2013-07-05 20:18:00,74.3,72.5,30.14,SW,219,2.0,4.0,94,0.03,,---,0.42,VWS V14.01,2013-07-06 00:18:00,
2013-07-05 20:19:00,74.2,72.4,30.14,SW,219,1.0,4.0,94,0.03,,---,0.42,VWS V14.01,2013-07-06 00:19:00,
2013-07-05 20:24:00,73.8,72.0,30.14,SW,219,0.0,2.0,94,0.03,,---,0.42,VWS V14.01,2013-07-06 00:24:00,
2013-07-05 20:30:00,73.6,72.1,30.13,SW,219,0.0,2.0,95,0.03,,---,0.42,VWS V14.01,2013-07-06 00:30:00,
2013-07-05 20:35:00,73.4,71.9,30.13,SW,219,0.0,0.0,95,0.03,,---,0.42,VWS V14.01,2013-07-06 00:35:00,
2013-07-05 20:40:00,73.3,72.1,30.13,East,84,0.0,0.0,96,0.03,,---,0.42,VWS V14.01,2013-07-06 00:40:00,
2013-07-05 20:45:00,73.2,72.0,30.12,ESE,121,0.0,2.0,96,0.03,,---,0.42,VWS V14.01,2013-07-06 00:45:00,
2013-07-05 20:50:00,73.0,71.8,30.12,ESE,121,0.0,2.0,96,0.03,,---,0.42,VWS V14.01,2013-07-06 00:50:00,
2013-07-05 20:55:00,73.0,71.8,30.12,ESE,121,0.0,0.0,96,0.02,,---,0.42,VWS V14.01,2013-07-06 00:55:00,
2013-07-05 21:00:00,72.8,71.6,30.12,ESE,121,0.0,0.0,96,0.02,,---,0.42,VWS V14.01,2013-07-06 01:00:00,
2013-07-05 21:05:00,72.8,71.6,30.12,ESE,121,0.0,0.0,96,0.01,,---,0.42,VWS V14.01,2013-07-06 01:05:00,
2013-07-05 21:10:00,72.8,71.9,30.12,ESE,121,0.0,0.0,97,0.01,,---,0.42,VWS V14.01,2013-07-06 01:10:00,
2013-07-05 21:15:00,72.6,71.7,30.13,ESE,121,0.0,0.0,97,0.01,,---,0.42,VWS V14.01,2013-07-06 01:15:00,
2013-07-05 21:20:00,72.5,71.6,30.13,ESE,121,0.0,0.0,97,0.00,,---,0.42,VWS V14.01,2013-07-06 01:20:00,
2013-07-05 21:25:00,72.4,71.5,30.13,ESE,121,0.0,0.0,97,0.00,,---,0.42,VWS V14.01,2013-07-06 01:25:00,
2013-07-05 21:31:00,72.3,71.4,30.13,ESE,121,0.0,0.0,97,0.00,,---,0.42,VWS V14.01,2013-07-06 01:31:00,
2013-07-05 21:36:00,72.1,71.2,30.13,ESE,121,0.0,0.0,97,0.00,,---,0.42,VWS V14.01,2013-07-06 01:36:00,
2013-07-05 21:41:00,72.0,71.1,30.13,ESE,121,0.0,0.0,97,0.00,,---,0.42,VWS V14.01,2013-07-06 01:41:00,
2013-07-05 21:46:00,71.9,71.0,30.14,ESE,121,0.0,0.0,97,0.00,,---,0.42,VWS V14.01,2013-07-06 01:46:00,
2013-07-05 21:51:00,71.9,71.0,30.14,ESE,121,0.0,0.0,97,0.00,,---,0.42,VWS V14.01,2013-07-06 01:51:00,
2013-07-05 21:56:00,71.9,71.0,30.14,ESE,121,0.0,0.0,97,0.00,,---,0.42,VWS V14.01,2013-07-06 01:56:00,
2013-07-05 22:01:00,71.7,70.8,30.15,ESE,121,0.0,0.0,97,0.00,,---,0.42,VWS V14.01,2013-07-06 02:01:00,
2013-07-05 22:06:00,71.6,70.7,30.15,ESE,121,0.0,0.0,97,0.00,,---,0.42,VWS V14.01,2013-07-06 02:06:00,
2013-07-05 22:12:00,71.6,70.7,30.15,ESE,121,0.0,0.0,97,0.00,,---,0.42,VWS V14.01,2013-07-06 02:12:00,
2013-07-05 22:17:00,71.5,70.6,30.16,ESE,121,0.0,0.0,97,0.00,,---,0.42,VWS V14.01,2013-07-06 02:17:00,
2013-07-05 22:22:00,71.5,70.6,30.16,ESE,121,0.0,0.0,97,0.00,,---,0.42,VWS V14.01,2013-07-06 02:22:00,
2013-07-05 22:27:00,71.4,70.5,30.16,ESE,121,0.0,0.0,97,0.00,,---,0.42,VWS V14.01,2013-07-06 02:27:00,
2013-07-05 22:32:00,71.4,70.5,30.16,ESE,121,0.0,0.0,97,0.00,,---,0.42,VWS V14.01,2013-07-06 02:32:00,
2013-07-05 22:37:00,71.3,70.4,30.16,ESE,121,0.0,0.0,97,0.00,,---,0.42,VWS V14.01,2013-07-06 02:37:00,
2013-07-05 22:42:00,71.3,70.4,30.16,ESE,121,0.0,0.0,97,0.00,,---,0.42,VWS V14.01,2013-07-06 02:42:00,
2013-07-05 22:47:00,71.3,70.4,30.16,ESE,121,0.0,1.0,97,0.00,,---,0.42,VWS V14.01,2013-07-06 02:47:00,
2013-07-05 22:53:00,71.3,70.4,30.16,ESE,121,0.0,1.0,97,0.00,,---,0.42,VWS V14.01,2013-07-06 02:53:00,
2013-07-05 22:58:00,71.4,70.5,30.16,ESE,121,0.0,1.0,97,0.00,,---,0.42,VWS V14.01,2013-07-06 02:58:00,
2013-07-05 23:03:00,71.5,70.6,30.16,ESE,121,0.0,0.0,97,0.00,,---,0.42,VWS V14.01,2013-07-06 03:03:00,
2013-07-05 23:08:00,71.5,70.6,30.16,ESE,121,0.0,3.0,97,0.00,,---,0.42,VWS V14.01,2013-07-06 03:08:00,
2013-07-05 23:13:00,71.5,70.6,30.16,ESE,121,0.0,0.0,97,0.00,,---,0.42,VWS V14.01,2013-07-06 03:13:00,
2013-07-05 23:18:00,71.5,70.6,30.16,ESE,121,0.0,1.0,97,0.00,,---,0.42,VWS V14.01,2013-07-06 03:18:00,
2013-07-05 23:23:00,71.5,70.6,30.16,ESE,121,0.0,0.0,97,0.00,,---,0.42,VWS V14.01,2013-07-06 03:23:00,
2013-07-05 23:28:00,71.5,70.6,30.16,ESE,121,0.0,0.0,97,0.00,,---,0.42,VWS V14.01,2013-07-06 03:28:00,
2013-07-05 23:33:00,71.4,70.5,30.16,ESE,121,0.0,0.0,97,0.00,,---,0.42,VWS V14.01,2013-07-06 03:33:00,
2013-07-05 23:39:00,71.3,70.4,30.16,ESE,121,0.0,0.0,97,0.00,,---,0.42,VWS V14.01,2013-07-06 03:39:00,
2013-07-05 23:44:00,71.2,70.3,30.16,ESE,121,0.0,0.0,97,0.00,,---,0.42,VWS V14.01,2013-07-06 03:44:00,
2013-07-05 23:49:00,71.2,70.3,30.15,ESE,121,0.0,0.0,97,0.00,,---,0.42,VWS V14.01,2013-07-06 03:49:00,
2013-07-05 23:54:00,71.2,70.6,30.15,ESE,121,0.0,1.0,98,0.00,,---,0.42,VWS V14.01,2013-07-06 03:54:00,
2013-07-05 23:59:00,71.2,70.6,30.15,ESE,121,0.0,1.0,98,0.00,,---,0.42,VWS V14.01,2013-07-06 03:59:00,